COSMOS 1275 DEB, 17639

Orbit data source: Space-Track

COSMOS 1275 DEB, 17639 is space debris in LEO originally from a launch on Thu, 04 Jun 1981 UTC launched from the Plesetsk Missile And Space Complex (PKMTR). Debris objects in space refer to the collection of defunct objects orbiting the Earth. Examples of debris include non-operational satellites, rocket bodies, and fragments generated from explosions, collisions, or faulty payload assembly.

Loading next visibility...
Identifier
17639, 1981-053LJ
Orbit
LEO
Country
Flag of CISCIS
Related business
Manufacturer
Unknown
Mission
Spacecraft
Bus & Motor
Unknown
Mass
Unknown
Launch date (UTC)
1981-06-04 (45 years ago)
Launch vehicle
Unknown
Launch site
Plesetsk Missile And Space Complex (PKMTR)
Object type
Payload
Rocket body
Debris
Shape & HBR
Unknown shape, 0.1 m
Radar Cross Section
Small (<0.1 m²)

Expand to show TLE details & history
Last TLE update: 18 hours ago

TLE from 18 hours ago
0 COSMOS 1275 DEB
1 17639U 81053LJ  25352.50285575  .00001324  00000-0  15506-2 0  9996
2 17639  82.9975 246.6825 0155777 306.5628 234.2926 13.62741560  6350
Epoch: 2025-12-18T12:04Z
TLE epoch observation values (Epoch: 2025-12-18T12:04:06.736Z)
Latitude
0.46248°
Longitude
158.24048°
Altitude
1,097.067 km
Speed
7.27 km/s
True Right ascension
04h 26m 30s
True Declination
0° 27' 35"
Sunlit
Object was in full shadow at epoch
Visualization orbit readout
Latitude
Unknown
Longitude
Unknown
Altitude
Unknown
Speed
Unknown
Apparent Right ascension
Unknown
Apparent Declination
Unknown
Sunlit
N/A
Visualization observer readout
Local Sidereal Time
05:24:38
Azimuth
Unknown
Elevation
Unknown
Doppler factor
Unknown
Orbital elements
Apogee altitude
1,138.199 km
Perigee altitude
907.617 km
Semi-major axis
7,401.045 km
Eccentricity
0.01558
Inclination
82.9975°
RAAN
246.6825°
Arg. of periapsis
306.5628°
True anomaly
232.85955°
Mean anomaly
234.2926°
Eccentric anomaly
233.57444°
Mean motion
3.40882 °/min
Orbital period
105.61 mins
BSTAR
0.0015506
Loading maneuver chart data...
Computing Atmospheric mass density...
Loading historical data...
Loading historical data...
Loading historical data...
Loading historical data...
Loading historical data...
Loading historical data...
Loading historical data...

Documentation

Showing up to 5 results
|